[[{"header":{"parameterUnit":"m.s-1","parameterCategory":1,"la1":30.2991,"la2":30.254,"lo1":-89.0895,"lo2":-89.0444,"dy":0.0017,"dx":0.0017,"nx":28,"ny":28,"refTime":"2023-09-12T03:00:00:Z","depth":0,"parameterNumber":2,"parameterNumberName":"U-component_of_WINDS"},"data":[0,0,0,0,0,0,0,0,0,0,0,0,0,0,0,0,0,0,0,0,0,0,0,0,0,0,0,0,0,0,0,0,0,0,0,0,0,0,0,0,0,0,0,0,0,0,0,0,0,0,0,0,0,0,0,0,0,0,-1.2431,-1.2434,0,-1.2769,-1.2773,-1.2776,-1.3034,-1.3036,-1.3039,-1.3041,-1.3362,-1.3368,-1.3374,0,0,0,0,0,0,0,0,0,0,0,0,0,-1.1983,-1.199,-1.243,-1.2435,-1.2439,-1.2768,-1.2773,-1.2777,-1.3033,-1.3036,-1.3039,-1.3042,-1.336,-1.3367,-1.3375,0,0,0,0,0,0,0,0,0,0,0,0,0,-1.2234,-1.1992,-1.2429,-1.2607,-1.2626,-1.2767,-1.2773,-1.2779,-1.3033,-1.3036,-1.304,-1.3043,-1.3357,-1.3366,-1.3376,-1.336,0,0,-1.3404,-1.3408,0,0,0,0,0,0,0,0,-1.2219,-1.225,-1.2577,-1.2595,-1.2617,-1.2864,-1.2733,-1.2973,-1.3032,-1.2877,-1.3041,-1.3045,-1.3191,-1.3214,-1.3269,-1.3375,-1.3389,-1.3405,-1.3411,-1.3415,-1.3417,0,0,0,0,0,0,0,-1.2202,-1.2237,-1.2564,-1.2581,-1.2605,-1.2662,-1.2702,-1.278,-1.3008,-1.2891,-1.2911,-1.2949,-1.3203,-1.3259,-1.3278,-1.3393,-1.3405,-1.3413,-1.3419,-1.3423,-1.3503,-1.3499,0,0,0,0,0,0,-1.216,-1.2221,-1.2553,-1.2574,-1.2424,-1.2667,-1.2712,-1.278,-1.3009,-1.3048,-1.2945,-1.2959,-1.3242,-1.3267,-1.3291,-1.3288,-1.3415,-1.3424,-1.3429,-1.3506,-1.3502,-1.3498,0,0,0,0,0,0,-1.215,-1.2187,-1.2539,-1.2403,-1.2452,-1.2671,-1.2746,-1.2785,-1.2842,-1.305,-1.309,-1.2963,-1.3245,-1.3277,-1.3343,-1.3302,-1.3428,-1.3436,-1.351,-1.3505,-1.35,-1.3279,0,0,0,0,0,0,-1.2136,-1.2182,-1.2184,-1.2402,-1.2459,-1.2591,-1.2743,-1.2789,-1.2861,-1.2882,-1.3077,-1.3112,-1.3251,-1.3327,-1.3352,-1.3317,-1.3444,-1.3515,-1.3508,-1.3502,-1.3291,-1.3267,-1.3247,0,0,0,0,0,-1.2119,-1.2102,-1.2182,-1.2221,-1.2466,-1.2589,-1.2621,-1.2788,-1.2856,-1.2856,-1.299,-1.3106,-1.3303,-1.3332,-1.3362,-1.3329,-1.3518,-1.351,-1.3502,-1.3301,-1.3272,-1.3247,0,0,0,0,0,0,-1.1864,-1.2134,-1.2226,-1.2281,-1.2411,-1.2632,-1.2637,-1.2751,-1.2858,-1.2873,-1.3068,-1.311,-1.3153,-1.3248,-1.3275,-1.3326,-1.3425,-1.3423,-1.3262,-1.3236,-1.3214,-1.3188,-1.3451,0,0,0,0,0,-1.1816,-1.1901,-1.2129,-1.2155,-1.2217,-1.2415,-1.2474,-1.2594,-1.2732,-1.2786,-1.2925,-1.3048,-1.3139,-1.3193,-1.3287,-1.3307,-1.3351,-1.3299,-1.3277,-1.3258,-1.3252,-1.3268,-1.3247,-1.3472,-1.3472,-1.3472,0,0,-1.1714,-1.1872,-1.1912,-1.2108,-1.2223,-1.2299,-1.2459,-1.2533,-1.2589,-1.2794,-1.2867,-1.2972,-1.3123,-1.3165,-1.3191,-1.3245,-1.32,-1.3248,-1.3231,-1.3236,-1.3257,-1.3236,-1.3217,-1.3467,-1.3468,-1.3469,0,0,-1.1568,-1.1698,-1.1735,-1.1849,-1.2024,-1.2157,-1.2165,-1.2371,-1.2451,-1.2529,-1.2685,-1.2751,-1.2902,-1.3004,-1.3075,-1.297,-1.3079,-1.2994,-1.2876,-1.2889,-1.2872,-1.2857,-1.2816,-1.28,-1.2989,-1.2988,-1.2988,0,-1.1416,-1.1546,-1.1736,-1.1804,-1.1883,-1.2082,-1.2117,-1.2215,-1.2407,-1.2454,-1.2516,-1.2713,-1.2827,-1.2896,-1.2871,-1.2923,-1.2933,-1.2971,-1.2861,-1.2848,-1.2836,-1.28,-1.2784,-1.2977,-1.2978,-1.2979,-1.298,0,-1.135,-1.1437,-1.1444,-1.1636,-1.1717,-1.1765,-1.1957,-1.2014,-1.2126,-1.2249,-1.2323,-1.247,-1.2598,-1.2624,-1.2729,-1.2706,-1.2735,-1.2826,-1.2929,-1.28,-1.2769,-1.2757,-1.296,-1.2964,-1.2968,-1.297,0,0,-1.1049,-1.135,-1.1349,-1.1438,-1.1648,-1.1715,-1.1771,-1.1905,-1.1949,-1.2075,-1.2123,-1.2249,-1.2336,-1.2416,-1.2536,-1.2548,-1.2452,-1.2637,-1.2644,-1.2595,-1.2432,-1.236,-1.2342,-1.2528,-1.2527,-1.2525,-1.2419,0,-1.0933,-1.1056,-1.1229,-1.1289,-1.137,-1.1561,-1.161,-1.1739,-1.1857,-1.1936,-1.2063,-1.2149,-1.2258,-1.2308,-1.2329,-1.2459,-1.2421,-1.247,-1.2568,-1.2569,-1.2521,-1.2326,-1.2251,-1.2143,-1.2408,-1.2406,-1.2405,0,-1.0814,-1.0939,-1.101,-1.1216,-1.1256,-1.1297,-1.1434,-1.151,-1.1659,-1.1743,-1.1835,-1.1967,-1.203,-1.2126,-1.2212,-1.2241,-1.2291,-1.2361,-1.2361,-1.2373,-1.2476,-1.2329,-1.2113,-1.2095,-1.2388,-1.2389,-1.239,0,-1.0584,-1.0769,-1.0837,-1.0908,-1.1149,-1.1173,-1.1273,-1.1427,-1.1497,-1.1614,-1.166,-1.1778,-1.1842,-1.1928,-1.2086,-1.2142,-1.2153,-1.2263,-1.2219,-1.2214,-1.2209,-1.2206,-1.1994,-1.2246,-1.2246,-1.2247,-1.2247,0,-1.0434,-1.0469,-1.0738,-1.0778,-1.0821,-1.1018,-1.1053,-1.1169,-1.1305,-1.1366,-1.1536,-1.1588,-1.1796,-1.187,-1.1993,-1.2044,-1.2071,-1.2136,-1.2168,-1.212,-1.2111,-1.2152,-1.2162,-1.2243,-1.2243,-1.2244,-1.2245,0,-1.0183,-1.0365,-1.0451,-1.0675,-1.0732,-1.0753,-1.0942,-1.0984,-1.1115,-1.1189,-1.1218,-1.1417,-1.1514,-1.1683,-1.1824,-1.1907,-1.1931,-1.1988,-1.1883,-1.1902,-1.1847,-1.1849,-1.1651,-1.1634,-1.1898,-1.1895,-1.1893,0,-1.0074,-1.0107,-1.0338,-1.0396,-1.0492,-1.0582,-1.0657,-1.085,-1.0919,-1.1093,-1.1113,-1.1225,-1.1325,-1.1469,-1.1621,-1.173,-1.1788,-1.1712,-1.1805,-1.1755,-1.1783,-1.1778,-1.1781,-1.1688,-1.1684,-1.1681,-1.1679,0,-0.9861,-0.9951,-1.0057,-1.0193,-1.028,-1.0394,-1.0516,-1.0551,-1.0771,-1.0838,-1.0945,-1.1022,-1.1172,-1.1279,-1.1411,-1.1506,-1.1625,-1.165,-1.1645,-1.1593,-1.153,-1.1561,-1.1821,-1.1652,-1.1654,-1.1656,-1.1658,-1.1659,-0.9677,-0.9715,-0.9884,-0.9995,-1.011,-1.0221,-1.0273,-1.0413,-1.0508,-1.065,-1.0757,-1.0854,-1.1,-1.1192,-1.128,-1.1353,-1.1409,-1.1402,-1.14,-1.1394,-1.1374,-1.1522,-1.1378,-1.1379,-1.138,-1.1381,-1.1382,0,-0.947,-0.959,-0.9691,-0.9862,-0.9947,-1.0065,-1.0206,-1.0268,-1.0354,-1.0485,-1.0583,-1.0702,-1.0807,-1.0971,-1.1087,-1.1114,-1.1172,-1.1137,-1.1135,-1.1154,-1.1319,-1.1311,-1.1089,-1.1089,-1.1089,-1.1089,-1.1089,-1.1089,-0.9372,-0.9444,-0.9553,-0.968,-0.9798,-0.9902,-0.9972,-1.0073,-1.018,-1.0309,-1.0401,-1.051,-1.0653,-1.0781,-1.0881,-1.0926,-1.0958,-1.0905,-1.0966,-1.1116,-1.1143,-1.1168,-1.1162,-1.0912,-1.0912,-1.0796,-1.0794,-1.0793]},{"header":{"parameterUnit":"m.s-1","parameterCategory":1,"la1":30.2991,"la2":30.254,"lo1":-89.0895,"lo2":-89.0444,"dy":0.0017,"dx":0.0017,"nx":28,"ny":28,"refTime":"2023-09-12T03:00:00:Z","depth":0,"parameterNumber":3,"parameterNumberName":"V-component_of_WINDS"},"data":[0,0,0,0,0,0,0,0,0,0,0,0,0,0,0,0,0,0,0,0,0,0,0,0,0,0,0,0,0,0,0,0,0,0,0,0,0,0,0,0,0,0,0,0,0,0,0,0,0,0,0,0,0,0,0,0,0,0,-1.6604,-1.6604,0,-1.664,-1.6641,-1.6641,-1.6727,-1.6729,-1.6731,-1.6732,-1.6771,-1.6771,-1.677,0,0,0,0,0,0,0,0,0,0,0,0,0,-1.661,-1.661,-1.6604,-1.6604,-1.6604,-1.664,-1.6641,-1.6641,-1.6727,-1.6729,-1.6731,-1.6733,-1.6772,-1.6771,-1.677,0,0,0,0,0,0,0,0,0,0,0,0,0,-1.6623,-1.6609,-1.6604,-1.6651,-1.6656,-1.664,-1.6641,-1.6641,-1.6726,-1.6729,-1.6732,-1.6734,-1.6772,-1.6771,-1.677,-1.6711,0,0,-1.6767,-1.6767,0,0,0,0,0,0,0,0,-1.6622,-1.6623,-1.6644,-1.6648,-1.6653,-1.6682,-1.6657,-1.6665,-1.6726,-1.67,-1.6732,-1.6736,-1.674,-1.6741,-1.6743,-1.6713,-1.6714,-1.6767,-1.6767,-1.6766,-1.6766,0,0,0,0,0,0,0,-1.6621,-1.6622,-1.6618,-1.6644,-1.665,-1.6672,-1.6677,-1.6659,-1.6704,-1.6702,-1.6709,-1.6712,-1.6743,-1.6743,-1.6744,-1.6715,-1.6767,-1.6766,-1.6766,-1.6765,-1.6638,-1.6635,0,0,0,0,0,0,-1.6613,-1.662,-1.6617,-1.6619,-1.6644,-1.667,-1.6675,-1.667,-1.6705,-1.6713,-1.6709,-1.6715,-1.6743,-1.6745,-1.6746,-1.6678,-1.6766,-1.6765,-1.6765,-1.6641,-1.6637,-1.6634,0,0,0,0,0,0,-1.6613,-1.6612,-1.6616,-1.6621,-1.6624,-1.6667,-1.666,-1.6669,-1.667,-1.671,-1.6719,-1.6701,-1.6746,-1.6747,-1.6719,-1.668,-1.6765,-1.6764,-1.6644,-1.664,-1.6636,-1.6541,0,0,0,0,0,0,-1.6613,-1.6611,-1.6589,-1.662,-1.6623,-1.6587,-1.6658,-1.6668,-1.6668,-1.6676,-1.6705,-1.6712,-1.6748,-1.672,-1.6718,-1.668,-1.6763,-1.6648,-1.6642,-1.6637,-1.6548,-1.6534,-1.6522,0,0,0,0,0,-1.6613,-1.6561,-1.6587,-1.6586,-1.6595,-1.6584,-1.6586,-1.6628,-1.6664,-1.6642,-1.6668,-1.6711,-1.6685,-1.6716,-1.6715,-1.6676,-1.665,-1.6644,-1.6637,-1.6553,-1.6537,-1.6523,0,0,0,0,0,0,-1.6525,-1.6566,-1.6595,-1.6553,-1.6564,-1.6599,-1.6572,-1.6609,-1.6611,-1.6619,-1.6671,-1.6677,-1.6641,-1.6657,-1.669,-1.6621,-1.6675,-1.6668,-1.6611,-1.6596,-1.6583,-1.6579,-1.6763,0,0,0,0,0,-1.65,-1.6487,-1.6525,-1.6483,-1.6488,-1.6529,-1.6525,-1.6556,-1.6571,-1.6576,-1.66,-1.6613,-1.6608,-1.6603,-1.6601,-1.6551,-1.6558,-1.6525,-1.6512,-1.6501,-1.6494,-1.6468,-1.6453,-1.6613,-1.6613,-1.6613,0,0,-1.645,-1.6471,-1.646,-1.6466,-1.6479,-1.6464,-1.6532,-1.6514,-1.6504,-1.6574,-1.6548,-1.6566,-1.6584,-1.6544,-1.6528,-1.6556,-1.6451,-1.6493,-1.6484,-1.6483,-1.646,-1.6444,-1.6431,-1.6609,-1.661,-1.661,0,0,-1.635,-1.6365,-1.6332,-1.6343,-1.6361,-1.6388,-1.638,-1.641,-1.6424,-1.6398,-1.645,-1.644,-1.643,-1.644,-1.6443,-1.6347,-1.6387,-1.6346,-1.6278,-1.6252,-1.6239,-1.6228,-1.6192,-1.6179,-1.6339,-1.6338,-1.6338,0,-1.6285,-1.6265,-1.631,-1.6288,-1.6289,-1.6352,-1.6318,-1.6327,-1.6344,-1.6343,-1.6375,-1.6363,-1.6379,-1.6342,-1.6319,-1.632,-1.6312,-1.6341,-1.6238,-1.6227,-1.6217,-1.6183,-1.617,-1.6333,-1.6334,-1.6334,-1.6335,0,-1.6184,-1.6168,-1.614,-1.6152,-1.6151,-1.6123,-1.6165,-1.6158,-1.6189,-1.6213,-1.6186,-1.6209,-1.6211,-1.6205,-1.6236,-1.6172,-1.6189,-1.6228,-1.6283,-1.6196,-1.6165,-1.6152,-1.6326,-1.6327,-1.6329,-1.633,0,0,-1.6029,-1.6067,-1.6055,-1.6061,-1.6086,-1.6075,-1.6051,-1.6052,-1.6044,-1.6054,-1.6034,-1.6024,-1.606,-1.6065,-1.6098,-1.6075,-1.5995,-1.6117,-1.6118,-1.6091,-1.5924,-1.5892,-1.5876,-1.6022,-1.602,-1.6018,-1.5921,0,-1.5934,-1.5893,-1.5933,-1.5884,-1.587,-1.5929,-1.5908,-1.592,-1.5942,-1.5934,-1.596,-1.5951,-1.6,-1.6003,-1.5983,-1.6009,-1.5962,-1.6017,-1.6003,-1.6002,-1.5994,-1.586,-1.5827,-1.5734,-1.591,-1.5908,-1.5906,0,-1.5818,-1.582,-1.5769,-1.5795,-1.5791,-1.5771,-1.5775,-1.5767,-1.5782,-1.58,-1.5804,-1.5843,-1.5821,-1.5876,-1.5846,-1.5882,-1.588,-1.5891,-1.5889,-1.5887,-1.5947,-1.5852,-1.5706,-1.569,-1.5888,-1.5889,-1.5891,0,-1.5708,-1.5699,-1.5667,-1.5671,-1.5701,-1.5685,-1.5697,-1.5715,-1.5713,-1.5717,-1.5716,-1.5717,-1.5718,-1.5718,-1.5757,-1.5794,-1.5721,-1.578,-1.5734,-1.5733,-1.5714,-1.5714,-1.5562,-1.5716,-1.5717,-1.5717,-1.5717,0,-1.5598,-1.5564,-1.5618,-1.5597,-1.5561,-1.5608,-1.5571,-1.5589,-1.5604,-1.5589,-1.5641,-1.5626,-1.5679,-1.5669,-1.57,-1.5668,-1.5669,-1.5682,-1.569,-1.5676,-1.5674,-1.5673,-1.5679,-1.5713,-1.5714,-1.5715,-1.5715,0,-1.5469,-1.5504,-1.5472,-1.5502,-1.5509,-1.5481,-1.5507,-1.549,-1.5515,-1.5495,-1.5493,-1.5533,-1.5524,-1.5563,-1.5562,-1.5582,-1.5534,-1.5555,-1.5528,-1.5533,-1.5484,-1.5487,-1.5324,-1.5304,-1.5473,-1.5472,-1.547,0,-1.5395,-1.5369,-1.5396,-1.5389,-1.5397,-1.5386,-1.5383,-1.5428,-1.5424,-1.5438,-1.5419,-1.5414,-1.5412,-1.5395,-1.5424,-1.5422,-1.5441,-1.5384,-1.5442,-1.5427,-1.5437,-1.5437,-1.5433,-1.5372,-1.537,-1.5368,-1.5367,0,-1.5259,-1.5277,-1.5271,-1.5269,-1.5264,-1.5266,-1.5272,-1.5263,-1.5312,-1.5304,-1.5294,-1.5293,-1.529,-1.5283,-1.5288,-1.5301,-1.534,-1.5349,-1.5337,-1.5321,-1.5305,-1.531,-1.5493,-1.5352,-1.5353,-1.5354,-1.5355,-1.5356,-1.5154,-1.5134,-1.5148,-1.5139,-1.5148,-1.5151,-1.5135,-1.5158,-1.515,-1.515,-1.5178,-1.5162,-1.5177,-1.5187,-1.5196,-1.5184,-1.5211,-1.5195,-1.5191,-1.5185,-1.5175,-1.5309,-1.5185,-1.5186,-1.5186,-1.5187,-1.5187,0,-1.502,-1.5032,-1.5022,-1.5027,-1.5019,-1.5057,-1.5065,-1.5056,-1.504,-1.5051,-1.5047,-1.5035,-1.5029,-1.5057,-1.5054,-1.5039,-1.5057,-1.5037,-1.5037,-1.5038,-1.5153,-1.5161,-1.5022,-1.5022,-1.5022,-1.5022,-1.5022,-1.5022,-1.4949,-1.4915,-1.4934,-1.4904,-1.4917,-1.4901,-1.4901,-1.4904,-1.4912,-1.4895,-1.489,-1.4908,-1.4925,-1.4923,-1.4919,-1.4927,-1.4923,-1.4895,-1.4909,-1.5015,-1.5031,-1.5046,-1.5054,-1.4894,-1.4894,-1.4795,-1.4794,-1.4794]}]]